ECMWFNIL_700_spd_027.txt.gz
Wind_Speed
17 15 14 12 9 8 10 10 9 8 7 7 6 5 6 5 3 2 2 3 4 3 2 2 4 8 9 8 8 7 5 3 3 5 6 7 7 8 9 9 9 10
18 17 16 13 10 10 11 11 9 9 9 9 8 6 6 6 4 3 3 3 2 3 2 1 2 6 8 8 8 7 5 3 4 5 6 7 7 7 9 9 9 11
20 18 16 13 11 10 10 10 8 8 9 8 7 6 7 7 5 4 4 4 2 1 2 0 2 5 8 8 8 7 6 5 5 6 6 7 7 8 9 9 9 10
21 19 16 12 10 10 10 9 8 8 8 7 6 7 6 7 7 6 5 4 2 1 1 1 3 6 7 7 8 8 7 6 6 6 7 7 7 7 6 6 7 9
21 19 15 12 11 10 9 8 8 8 8 7 7 8 7 7 7 6 5 4 2 2 2 2 3 6 6 7 8 8 7 6 6 7 8 8 8 8 8 8 10 11
21 18 15 13 11 10 9 9 9 8 8 7 8 8 8 7 7 5 4 4 4 4 4 3 4 6 7 7 7 7 6 6 6 7 8 9 9 10 11 11 11 12
20 17 15 13 11 9 9 9 9 7 6 6 7 7 7 7 6 4 5 6 6 6 5 5 5 6 6 7 7 7 7 7 7 7 8 9 10 11 12 13 13 13
19 17 15 12 10 9 9 8 7 5 4 4 5 6 6 6 4 5 8 8 7 7 6 5 5 6 6 7 8 7 7 7 8 9 9 10 11 12 13 14 14 13
19 16 13 10 9 9 8 6 5 3 3 3 3 4 5 5 2 7 10 9 8 8 6 5 5 6 7 7 8 8 8 8 9 9 10 11 12 12 11 11 11 10
19 16 12 10 9 8 7 6 4 3 2 2 3 3 4 3 2 10 11 10 9 8 6 5 5 6 7 7 7 8 9 9 9 9 10 11 10 9 8 8 7 7
19 15 12 10 9 9 8 6 4 3 3 1 1 2 3 2 4 10 12 11 10 9 8 6 5 6 6 6 6 8 9 8 8 9 9 8 7 5 5 4 4 4
20 16 13 11 10 10 8 6 5 5 3 1 0 2 4 3 5 9 11 11 10 9 9 7 6 7 7 6 6 7 7 7 7 7 6 6 4 4 4 5 5 5
21 17 15 12 11 10 9 7 6 5 3 1 0 2 3 4 6 7 9 10 10 10 10 9 9 8 9 9 8 8 8 8 7 7 8 8 7 7 7 8 8 7
21 17 15 14 12 11 10 8 7 5 3 1 1 2 3 4 5 6 8 9 10 11 11 12 12 12 12 12 11 10 10 10 11 11 11 12 12 11 11 11 11 11
18 16 16 15 13 12 10 8 6 4 3 2 1 1 2 3 5 6 8 9 11 13 13 14 15 15 15 15 14 14 14 14 14 14 15 16 16 15 15 15 15 15
16 16 16 15 14 12 11 8 6 4 3 3 2 2 2 3 5 7 8 9 11 13 15 16 17 18 18 17 17 17 17 17 17 18 19 20 19 19 19 19 19 19
15 14 13 13 13 12 11 9 6 5 5 5 4 5 4 4 5 6 7 8 9 12 14 16 17 17 18 18 19 19 20 20 21 21 22 23 22 22 22 23 23 23
14 14 13 12 12 11 9 8 7 6 6 7 7 7 8 8 7 7 8 9 11 12 14 15 16 15 15 17 19 21 22 23 24 25 26 26 26 26 26 27 27 27
17 17 15 13 11 9 9 10 10 10 10 10 10 9 10 10 10 10 11 12 13 14 14 15 16 16 15 16 18 20 21 23 25 26 28 29 29 29 30 31 31 32
20 19 17 15 14 13 13 13 14 14 13 13 13 13 12 13 13 12 12 13 14 14 14 14 15 15 15 15 18 20 21 22 24 25 27 29 30 30 31 31 32 33
21 19 17 17 16 16 16 16 17 17 17 17 16 16 15 15 14 13 13 14 14 14 14 14 15 15 15 15 17 19 21 23 24 24 25 27 28 30 31 31 31 32
18 16 15 15 15 15 15 16 17 18 19 19 18 18 17 17 16 16 15 16 17 17 16 15 16 16 16 17 17 19 21 23 24 24 25 26 28 30 31 32 32 33
17 16 15 15 15 16 16 17 17 18 19 19 19 19 19 19 19 19 19 19 20 21 21 20 19 19 19 19 20 21 23 24 25 26 27 28 30 31 32 33 33 33
17 17 17 17 18 18 19 19 20 21 22 22 22 21 21 21 22 23 23 23 23 25 26 26 25 24 24 24 24 24 25 26 27 28 30 32 32 32 34 35 34 35
18 19 20 20 20 21 20 20 21 22 23 24 23 22 22 23 24 25 26 26 28 29 30 31 31 30 29 28 27 27 27 28 29 30 32 33 33 34 36 37 37 37
23 23 23 24 24 24 25 25 25 26 26 26 26 26 26 27 28 29 30 31 32 33 34 35 35 35 34 33 31 29 29 29 30 32 34 35 35 36 37 38 39 38

ECMWFNIL_700_spd_030.txt.gz
Wind_Speed
20 18 15 13 11 9 7 6 5 5 6 7 6 5 5 5 4 4 5 6 6 5 4 4 5 7 8 8 9 9 7 7 7 7 8 8 8 8 8 9 10 11
21 19 17 15 13 10 8 7 7 7 7 8 7 6 5 5 4 4 5 6 6 5 4 5 6 6 7 8 8 9 8 7 7 6 6 5 5 5 6 7 8 9
22 20 18 16 13 11 9 8 8 7 7 6 5 5 4 4 5 5 5 6 6 5 5 6 7 7 8 9 9 9 8 7 7 6 5 5 4 4 6 7 7 7
22 21 19 16 13 11 10 8 7 7 7 6 4 4 3 4 5 5 6 6 6 6 6 7 8 8 9 10 10 10 9 7 6 6 6 5 5 5 6 7 7 8
22 21 19 16 13 11 10 8 7 7 8 7 6 6 4 4 5 5 6 6 6 7 7 8 8 8 9 10 11 10 9 7 6 5 6 6 7 7 8 9 10 10
22 19 17 14 12 11 10 8 7 8 9 8 7 6 5 5 6 6 6 6 7 7 8 8 8 8 9 9 10 9 9 8 7 7 7 8 9 9 10 11 11 12
20 18 15 13 11 11 11 10 9 9 9 8 8 6 5 6 7 7 7 7 8 8 9 9 8 8 8 9 9 8 8 7 7 7 8 8 8 8 9 10 11 11
19 16 14 13 12 12 12 11 10 10 9 8 8 7 5 6 7 7 8 9 10 10 10 10 9 9 9 9 9 8 8 8 8 8 7 8 8 9 10 11 11 10
18 16 14 14 13 13 13 12 10 9 8 8 7 6 5 6 7 8 11 12 11 11 11 11 11 11 11 11 10 10 9 9 9 9 9 9 9 9 10 10 11 11
19 17 15 15 15 14 13 11 9 8 7 7 6 5 5 5 5 10 14 13 12 12 12 12 12 12 12 12 12 12 11 10 10 11 11 11 11 10 9 9 10 10
22 20 19 18 16 13 11 9 8 8 7 6 5 4 3 3 4 12 15 14 13 13 12 12 12 12 12 13 13 13 12 13 12 12 12 12 11 10 9 9 8 8
21 21 20 18 15 12 10 9 10 9 7 6 4 4 3 2 7 14 15 14 14 13 12 12 12 12 12 12 13 12 13 13 13 13 13 12 10 9 9 8 7 6
16 16 15 12 11 12 11 11 11 9 8 6 5 5 6 6 8 13 15 14 14 13 13 12 12 12 12 12 12 12 12 12 13 13 12 10 9 9 8 7 6 5
12 12 12 11 12 13 12 11 11 10 9 7 7 7 8 7 8 11 13 13 12 12 12 12 12 12 11 11 12 12 11 11 11 11 11 10 10 9 8 7 6 6
10 11 14 14 14 14 12 11 12 12 10 9 8 8 8 9 9 10 11 11 11 12 12 12 12 12 11 11 11 11 11 12 11 11 11 11 11 11 10 9 9 9
13 14 16 17 16 15 14 13 13 13 11 10 9 9 9 11 11 12 12 11 12 12 12 12 12 12 12 12 12 12 12 13 13 13 14 14 14 14 14 14 13 13
15 15 16 18 17 15 14 13 13 13 12 11 11 11 11 12 13 14 14 14 14 14 14 14 14 13 14 14 15 15 15 16 16 17 18 18 18 18 18 18 18 18
16 16 17 20 20 17 15 14 12 12 12 11 12 12 13 13 13 14 15 16 16 16 15 15 15 15 16 16 17 17 18 19 20 21 21 21 22 22 22 23 23 23
17 17 20 22 22 20 20 20 18 16 16 15 13 12 12 13 13 14 16 16 17 16 16 16 16 17 18 18 19 20 20 21 21 21 22 22 22 23 24 25 26 26
20 20 22 23 23 23 24 25 24 23 21 19 17 14 13 12 12 13 15 16 15 14 14 15 16 17 18 19 19 20 21 22 22 23 24 24 24 24 24 25 26 27
21 23 24 23 23 24 25 26 25 23 21 18 16 16 15 15 15 16 17 17 16 14 13 13 14 15 16 17 18 18 19 21 21 22 22 23 24 25 26 27 27 28
21 23 23 23 23 23 23 22 21 20 18 16 15 15 15 15 16 17 18 18 17 17 16 15 15 16 16 16 17 17 19 20 20 20 21 21 22 23 25 27 28 29
22 22 22 22 22 21 21 21 20 19 18 18 18 18 18 18 18 19 19 19 19 18 18 17 17 17 18 18 18 19 20 21 22 24 24 24 24 25 25 26 27 28
23 22 22 23 23 21 21 21 21 21 20 20 20 20 21 21 22 22 22 23 22 22 22 21 20 21 21 21 21 21 22 23 25 27 28 28 28 29 30 29 30 30
23 23 23 23 23 23 23 23 23 23 22 22 22 22 23 24 24 25 25 25 26 26 26 26 25 25 25 26 26 26 26 26 27 29 30 30 31 32 32 32 33 34
20 22 23 23 23 23 24 24 24 24 24 24 24 25 25 26 27 27 28 28 29 30 30 31 31 30 30 31 32 32 32 31 31 32 32 32 33 33 33 33 35 35

ECMWFNIL_700_spd_033.txt.gz
Wind_Speed
19 17 15 13 12 11 10 8 7 7 8 9 9 9 8 7 7 8 7 6 6 6 7 7 6 6 7 8 9 9 9 9 9 8 8 8 8 9 9 9 8 8
19 17 16 15 14 13 11 9 8 8 9 9 10 9 8 7 7 7 7 7 7 6 6 7 7 7 8 8 9 9 10 9 7 7 7 6 6 7 7 8 7 6
19 18 17 16 15 13 11 9 9 9 9 9 9 8 6 6 6 7 7 7 8 7 7 7 8 8 9 10 10 10 10 9 7 7 6 6 6 6 7 7 7 6
20 19 18 17 16 14 11 10 9 9 8 8 8 7 6 6 6 7 7 8 8 8 8 8 8 9 11 11 10 10 10 8 7 7 7 7 7 7 7 7 6 6
22 22 20 18 17 15 13 10 8 8 8 9 9 8 8 7 7 8 8 9 9 8 8 9 8 9 10 10 10 10 8 7 7 8 8 9 8 8 7 7 7 7
25 23 21 20 19 17 14 10 9 8 8 9 10 9 9 9 8 9 9 10 9 8 9 9 9 8 8 9 9 9 8 7 7 8 8 8 8 7 7 7 7 7
27 25 22 21 20 17 13 10 9 9 9 10 10 9 9 10 10 9 10 10 10 10 10 10 9 9 8 8 8 8 8 8 8 7 7 6 6 5 4 4 4 5
28 25 23 22 20 16 13 12 10 9 10 10 10 9 9 10 10 10 10 10 11 11 11 10 10 9 9 9 8 8 8 8 7 7 6 5 5 4 3 2 2 3
30 26 23 22 20 17 14 12 11 10 10 10 10 9 10 11 10 10 10 11 13 12 12 11 11 11 11 10 10 10 10 9 8 8 7 6 5 5 4 3 2 3
30 26 25 23 21 18 15 13 11 11 11 11 10 10 11 11 11 11 10 13 14 13 12 12 12 12 12 12 12 12 12 11 10 10 9 8 7 7 6 5 4 4
31 29 28 26 23 20 17 15 13 13 12 12 11 11 11 11 11 11 12 15 15 13 13 12 12 13 12 12 13 12 12 12 12 11 11 11 10 9 8 7 6 5
33 31 29 26 24 22 19 17 14 14 14 13 12 12 10 10 10 10 14 17 14 13 13 12 13 13 13 13 12 12 12 12 12 12 12 12 12 11 9 8 7 6
31 27 25 25 25 23 21 17 14 14 15 14 12 11 10 9 8 11 16 16 14 13 13 12 13 13 13 12 11 11 11 11 11 11 11 11 11 10 9 9 8 7
24 22 21 22 23 22 20 17 14 14 15 14 12 11 10 9 10 13 16 15 14 14 13 13 13 12 12 11 10 10 10 9 10 10 10 10 9 9 9 9 9 8
21 21 20 20 19 18 19 18 16 15 15 14 13 13 12 12 12 14 16 15 15 14 14 13 13 13 13 12 11 11 11 10 10 11 11 11 10 10 10 10 9 9
21 20 19 18 17 18 19 18 17 17 16 15 15 14 13 14 14 15 16 15 15 15 14 14 13 14 14 14 14 14 14 14 13 13 13 13 13 13 12 12 12 12
20 19 18 17 18 21 21 19 18 17 16 17 16 15 14 15 16 16 16 15 16 16 15 15 14 15 16 16 17 17 17 17 17 17 16 16 16 16 15 15 15 15
15 16 16 17 19 21 22 21 19 17 17 18 17 16 15 16 16 17 17 17 17 17 17 17 17 17 17 18 18 18 19 19 20 20 20 20 19 19 19 19 19 19
9 11 14 17 18 21 21 20 19 19 18 18 17 16 16 16 16 17 17 17 18 18 18 18 18 19 20 20 21 21 22 22 23 23 23 23 23 23 23 23 23 23
9 11 14 16 18 20 20 18 18 19 20 19 18 17 16 16 16 16 16 17 18 19 20 20 20 21 22 22 23 24 25 26 26 26 26 26 27 27 27 27 27 28
12 13 16 18 19 20 21 21 21 21 21 21 20 19 18 18 17 17 17 18 19 19 19 19 20 22 23 24 25 26 27 28 28 28 29 29 29 29 29 29 29 30
14 16 18 19 19 20 22 23 23 23 22 23 22 21 20 19 18 19 19 20 20 20 19 20 22 23 24 25 26 28 28 29 30 30 31 31 31 30 30 30 30 31
16 18 19 19 20 22 23 24 24 24 23 22 22 21 20 20 21 22 22 22 22 22 22 22 23 24 25 25 27 28 29 29 29 30 31 31 31 30 30 30 30 29
18 19 20 21 23 24 25 26 25 25 24 23 23 23 23 23 24 25 24 23 23 23 23 23 23 24 25 26 27 28 29 29 29 29 30 30 30 29 29 30 30 30
19 20 22 23 25 27 28 28 28 26 25 25 25 25 26 26 26 26 26 25 25 25 25 24 25 26 26 27 28 29 30 30 30 31 31 31 31 32 32 33 33 34
23 23 23 22 21 21 23 25 27 27 27 27 27 26 26 26 26 26 26 25 25 26 26 26 27 28 28 29 30 31 32 33 33 34 34 33 33 34 35 36 37 37

ECMWFNIL_700_spd_036.txt.gz
Wind_Speed
17 15 14 13 11 9 8 7 5 4 5 7 9 10 9 8 8 8 8 8 8 8 8 7 6 7 8 8 9 10 10 9 8 8 8 9 9 9 9 8 8 7
18 16 16 14 12 11 9 8 7 6 6 9 11 11 11 9 8 7 7 8 9 9 8 8 7 7 7 8 10 11 10 9 9 9 9 9 9 10 9 9 9 8
19 17 16 14 13 12 11 10 8 7 8 10 11 11 11 9 7 6 6 8 9 9 9 8 7 7 8 9 10 10 10 9 9 8 8 8 8 8 8 9 8 8
21 20 18 16 15 13 12 11 9 7 8 10 11 11 11 10 8 7 7 9 10 9 9 8 7 8 8 10 10 10 9 9 8 7 7 8 7 7 7 9 9 10
22 22 19 17 16 14 13 12 9 8 10 11 12 11 11 11 10 9 9 9 10 10 9 8 7 8 9 10 10 9 9 9 8 7 7 7 7 7 7 9 10 10
23 22 19 17 16 15 14 13 11 11 11 12 12 13 13 12 11 10 10 10 10 10 10 9 8 7 8 10 10 9 9 9 8 7 7 7 7 6 7 8 10 10
24 23 20 18 18 17 16 16 14 13 13 13 14 14 14 13 12 11 10 10 10 10 10 9 8 8 8 9 10 10 9 9 8 8 7 7 7 7 7 8 9 9
26 25 22 20 20 21 20 18 17 15 14 15 15 15 15 14 13 11 10 10 10 9 10 10 9 9 9 9 10 10 10 9 9 8 8 8 8 8 9 9 9 9
28 27 25 23 24 24 22 20 19 17 16 17 17 16 16 14 13 12 11 10 10 9 11 11 9 9 10 9 10 10 10 10 10 9 9 10 10 11 11 11 10 10
30 30 28 26 26 26 24 22 21 19 18 18 18 17 17 15 13 12 11 11 10 10 11 10 9 10 10 10 10 10 10 10 10 10 10 11 12 12 12 13 13 13
30 30 29 28 28 26 24 23 22 21 19 19 19 19 17 15 13 12 12 12 10 11 12 10 10 10 10 10 10 10 11 10 10 11 11 11 12 12 13 14 15 15
30 29 29 28 28 26 24 24 24 21 19 19 19 19 17 15 13 13 12 11 11 12 12 11 11 10 10 10 10 10 10 9 9 9 10 11 12 13 14 14 15 14
31 31 31 30 28 27 27 27 26 24 21 20 18 18 16 15 13 12 11 11 12 14 13 12 11 11 11 11 11 10 9 9 9 9 10 11 11 12 12 13 13 12
35 36 36 33 32 31 31 31 29 26 23 21 18 17 16 15 13 12 10 11 14 15 13 13 12 12 13 12 12 11 11 10 9 9 11 11 11 11 10 10 10 9
36 37 38 38 37 36 34 32 30 27 24 21 19 18 16 15 13 11 10 14 16 15 14 14 13 14 14 13 13 13 13 12 12 12 13 13 12 11 10 9 9 8
30 32 36 39 37 34 32 30 30 28 25 22 21 18 16 15 13 12 13 16 16 16 15 14 14 15 15 15 15 15 15 14 14 14 15 14 13 12 11 10 10 10
25 30 36 39 35 31 29 29 28 27 25 24 22 19 16 15 14 13 15 18 18 17 16 15 15 16 16 16 16 16 16 16 16 16 17 16 16 14 14 14 14 14
26 28 33 35 32 29 26 25 24 24 23 23 21 18 17 16 15 15 17 19 19 18 17 16 16 17 17 18 18 18 18 18 17 18 18 19 19 18 18 18 18 18
22 22 25 27 27 26 24 23 22 21 21 21 20 18 17 16 16 16 17 18 19 19 18 18 18 18 19 19 20 20 20 20 20 20 20 21 21 21 22 22 22 23
20 20 21 23 24 25 24 24 23 22 21 22 21 19 19 18 17 17 17 18 18 18 19 19 20 20 20 20 21 21 22 22 22 23 23 24 24 25 25 26 26 27
19 18 19 21 23 25 26 25 25 25 25 25 23 21 21 20 18 18 18 18 18 18 19 20 20 21 21 21 21 22 23 24 24 25 25 26 27 28 29 29 30 30
21 18 18 22 24 25 25 25 25 26 27 27 27 25 23 22 20 19 19 18 19 19 19 20 21 22 22 22 22 23 24 24 24 25 26 28 28 29 31 32 33 34
18 17 17 22 25 23 22 22 23 26 27 27 28 27 25 23 22 20 19 19 20 20 20 22 23 23 24 24 25 26 26 26 26 26 28 29 29 30 32 33 34 35
13 14 15 16 17 18 19 18 21 25 26 26 27 27 26 26 25 24 22 22 23 23 24 25 26 26 27 27 28 28 29 29 28 29 30 31 32 33 34 35 35 35
11 13 14 13 13 16 20 21 23 26 27 28 29 29 29 28 28 27 26 26 26 26 26 26 27 28 29 29 30 30 30 31 31 31 32 32 33 34 35 35 36 35
11 13 14 14 15 17 21 24 26 28 28 30 31 32 32 31 30 29 28 27 27 26 26 26 27 28 29 29 29 29 30 31 31 32 32 32 33 34 34 35 36 36

ECMWFNIL_700_spd_042.txt.gz
Wind_Speed
24 25 23 21 20 19 17 16 14 12 10 8 7 5 5 4 4 3 2 2 2 2 2 2 4 5 6 7 8 10 12 14 16 16 16 16 16 15 14 14 14 13
25 24 23 22 21 19 18 16 14 12 10 7 5 4 4 4 4 3 2 1 0 1 0 1 2 4 5 6 8 9 11 13 15 16 16 16 16 15 15 15 14 14
27 25 23 22 21 20 18 16 15 12 9 6 4 3 3 3 3 2 2 2 2 2 1 0 2 4 5 6 8 9 11 13 14 15 15 16 16 16 15 15 15 15
28 27 25 24 22 19 17 16 14 12 9 6 4 1 1 2 3 3 3 3 3 2 2 1 1 4 6 7 8 10 11 11 12 12 13 14 14 14 14 14 15 15
29 28 27 25 22 20 18 17 15 12 10 7 5 2 1 3 3 3 3 3 3 3 2 1 2 4 6 7 8 9 10 10 11 11 12 12 12 11 12 13 15 16
30 28 27 25 22 20 18 18 16 13 11 9 6 4 2 3 4 4 4 4 4 4 3 3 2 4 6 7 8 9 9 10 12 12 11 10 10 10 11 13 15 16
30 28 27 25 22 20 19 17 16 14 12 10 7 5 4 4 5 6 6 6 6 5 4 4 3 4 6 7 8 9 10 11 12 11 9 9 9 10 11 13 14 16
30 29 27 24 22 20 19 17 16 14 13 11 9 6 5 5 6 7 8 8 8 7 5 4 4 4 7 8 8 9 10 12 12 10 10 10 10 11 12 13 15 16
30 29 26 23 21 20 19 17 16 15 14 12 10 8 7 6 7 8 9 9 9 9 7 6 5 5 7 9 9 9 10 11 12 12 12 12 12 14 14 14 16 16
30 28 25 23 21 20 20 19 18 17 15 14 11 9 8 8 8 8 9 10 10 10 9 7 7 7 8 9 10 11 11 11 12 14 14 13 14 17 17 17 18 17
30 27 24 22 22 22 22 22 21 19 17 15 13 11 10 9 9 9 9 10 11 10 10 9 9 9 10 11 11 13 14 14 15 16 15 14 15 18 19 19 20 20
31 29 26 24 23 23 24 24 23 20 18 16 15 13 12 11 10 9 10 11 12 11 11 10 10 10 11 12 13 14 15 16 16 16 15 16 17 18 20 20 21 21
31 30 28 27 26 25 25 25 23 22 20 18 16 15 14 13 12 10 10 12 12 12 12 11 11 11 12 13 13 14 15 16 16 16 16 17 18 19 20 21 21 22
29 28 27 27 26 26 26 26 25 23 21 19 18 17 17 16 14 12 11 13 13 13 13 13 12 13 14 14 15 16 16 16 17 17 17 17 18 19 20 21 21 21
27 28 29 30 29 29 28 28 26 25 23 21 20 20 19 18 16 14 13 14 14 14 13 13 13 14 15 15 16 17 17 17 17 17 17 18 19 20 20 22 22 22
28 28 29 30 31 31 30 30 28 27 25 23 22 22 21 20 18 17 16 15 15 14 13 11 12 14 15 15 16 17 18 18 17 17 18 19 19 20 21 22 22 23
29 28 28 28 30 30 31 32 31 29 27 25 24 23 23 22 20 19 18 17 16 15 13 11 12 14 15 15 16 17 17 17 17 17 18 19 20 20 21 21 22 22
29 28 28 29 29 30 32 33 33 31 29 28 28 27 24 23 22 21 21 19 17 16 14 12 13 14 14 14 15 16 16 17 17 18 18 19 20 21 22 22 23 23
28 28 29 29 30 30 31 32 34 33 30 30 31 29 27 25 23 23 23 21 19 18 16 14 15 15 15 15 15 16 16 17 18 18 19 20 21 22 23 23 24 25
25 26 27 28 28 29 30 32 33 32 31 30 30 29 28 26 25 25 25 23 21 19 17 16 16 17 16 15 16 17 17 18 18 19 20 21 22 24 25 24 24 25
22 23 25 26 25 26 28 30 30 30 31 32 31 30 29 27 27 27 25 24 23 21 19 17 18 18 17 17 17 18 18 18 18 19 20 21 23 25 26 26 26 26
18 20 23 23 23 24 25 26 24 24 27 29 29 29 31 30 29 27 24 24 24 23 20 19 19 20 19 19 19 19 19 19 19 20 21 22 23 25 26 27 27 28
15 17 20 20 20 21 20 19 19 20 23 26 26 27 29 30 29 27 24 24 25 24 22 20 20 20 21 21 21 21 22 21 21 22 22 21 23 25 26 27 28 29
13 15 15 14 15 15 15 14 15 16 18 21 22 23 24 26 26 26 25 24 23 23 22 21 21 21 22 23 23 24 24 24 24 24 24 23 23 25 26 27 28 29
11 12 13 12 12 11 11 11 12 13 14 15 17 19 21 23 24 25 25 23 21 21 22 22 23 23 23 24 25 25 26 26 27 27 27 27 27 27 28 30 30 31
8 9 9 10 10 9 9 10 11 13 14 15 16 18 20 22 23 23 24 24 22 22 22 24 25 25 25 25 26 27 28 28 29 29 28 28 29 29 30 32 33 34

ECMWFNIL_700_spd_045.txt.gz
Wind_Speed
26 29 28 28 27 24 23 22 20 18 16 15 14 13 12 11 10 10 9 8 8 8 9 10 11 11 12 12 13 13 13 13 13 13 14 14 13 14 15 14 13 14
25 28 28 28 27 25 23 23 21 19 17 15 14 13 12 11 9 8 8 7 7 7 8 8 9 10 11 12 12 13 13 12 12 13 13 13 13 12 14 15 13 14
26 29 29 28 28 26 25 24 21 19 17 14 13 11 10 9 8 8 7 7 6 6 6 7 9 10 11 11 12 12 13 12 12 12 12 12 13 12 14 14 13 13
29 30 28 27 28 27 26 24 22 19 16 13 11 10 9 8 7 7 6 5 5 4 5 6 7 9 10 11 11 12 12 12 12 12 12 12 13 12 12 12 11 12
31 31 27 26 27 27 25 24 22 19 16 14 12 9 8 6 6 5 5 4 4 4 4 5 5 7 9 10 11 11 12 12 12 12 12 12 12 11 11 11 11 12
33 32 27 26 27 27 26 23 21 19 17 14 12 9 7 5 5 4 4 5 4 4 4 4 5 6 8 10 11 11 11 12 12 12 11 11 11 11 11 12 11 12
34 32 29 29 29 28 25 23 21 19 17 14 12 9 7 6 5 4 3 4 4 3 3 4 4 6 8 9 10 11 11 12 12 11 11 11 11 11 11 12 12 12
34 33 31 29 28 26 24 22 21 19 17 15 13 10 9 7 5 4 3 3 3 3 2 3 4 5 7 9 10 10 11 11 11 11 11 12 11 11 11 11 12 12
34 34 32 30 28 26 24 22 21 20 18 16 14 12 10 8 6 4 2 1 2 2 2 2 4 5 6 9 10 10 10 11 11 11 12 12 11 11 11 11 11 12
35 35 34 32 30 27 25 23 22 21 18 16 15 13 11 9 7 5 4 1 0 1 1 2 4 5 6 8 11 11 11 12 12 12 13 13 12 12 13 13 11 12
35 36 36 33 31 29 26 24 23 21 19 18 17 15 12 10 9 7 6 4 3 2 1 2 4 6 7 9 12 13 13 13 13 14 15 14 13 14 15 14 12 12
34 35 34 32 31 29 26 25 24 23 21 20 18 16 14 12 11 9 8 7 5 4 4 4 4 6 8 10 12 14 15 15 14 15 16 14 14 16 16 15 14 14
32 31 30 32 32 29 27 26 25 24 22 20 19 17 16 14 13 11 10 8 7 6 7 7 6 7 9 10 13 15 16 17 17 16 16 15 15 17 16 15 16 17
31 31 31 32 33 30 28 26 24 23 21 20 20 19 18 16 15 13 11 9 8 8 9 9 9 9 9 9 14 17 17 17 17 17 18 16 17 20 19 17 17 16
33 35 35 34 33 31 28 27 25 23 22 22 22 21 20 19 17 15 13 11 11 10 10 11 10 10 10 10 14 17 18 17 16 16 17 17 17 19 19 16 15 14
34 35 36 35 32 30 29 27 25 23 23 24 23 22 22 20 18 16 14 13 13 12 12 12 11 11 10 11 13 16 17 18 17 16 16 16 16 16 16 15 14 16
34 34 33 33 32 31 30 28 27 25 24 24 24 24 23 22 19 17 16 15 15 14 13 12 12 11 11 12 13 15 17 19 19 18 18 19 18 16 15 16 16 18
35 34 33 33 32 31 30 29 29 29 28 26 25 24 24 22 21 19 18 18 17 15 14 13 12 12 11 12 14 15 17 18 18 19 20 21 21 19 18 19 20 21
33 33 31 30 30 29 29 30 30 30 30 29 27 26 26 25 23 21 20 19 18 17 15 13 13 12 11 12 14 15 16 17 18 20 20 21 22 22 23 22 22 23
28 29 30 29 29 27 27 28 29 30 32 31 30 30 29 28 27 26 25 23 20 19 17 15 13 12 12 13 14 16 16 17 19 19 18 19 21 22 24 23 20 18
23 25 26 27 27 26 26 28 29 30 33 32 31 31 31 31 31 30 28 25 23 22 19 16 14 13 13 14 15 17 16 17 18 18 17 18 19 20 22 23 20 18
23 24 24 24 25 26 27 28 28 31 32 32 31 32 32 33 32 30 27 23 20 20 18 15 15 15 15 15 16 18 18 17 17 17 17 18 19 19 21 23 24 23
21 21 21 22 23 25 26 25 27 30 31 30 30 31 31 32 31 28 26 22 19 18 17 16 16 16 17 17 17 19 19 18 18 18 17 17 17 18 20 22 24 26
15 15 17 19 21 24 26 26 28 30 29 25 24 24 25 27 27 25 25 24 21 20 18 18 17 17 17 18 18 20 21 20 20 19 17 17 18 19 19 21 23 26
13 15 17 19 20 21 22 23 23 22 20 17 16 16 16 17 19 20 20 20 21 20 18 16 16 17 18 18 18 20 22 22 23 23 21 20 22 22 22 24 25 25
11 12 12 14 15 15 15 14 13 12 12 12 11 11 11 11 11 13 14 16 17 18 17 15 14 15 17 18 18 20 22 23 25 26 25 25 25 26 26 27 29 29

ECMWFNIL_700_spd_048.txt.gz
Wind_Speed
10 14 19 24 30 30 29 28 26 23 22 19 16 14 13 12 11 11 11 11 10 10 10 10 11 11 12 12 12 12 11 11 11 10 11 13 13 14 13 13 12 12
11 17 21 25 29 30 29 28 26 23 21 18 16 15 14 12 12 11 11 10 10 10 10 10 11 12 13 13 13 13 13 12 11 11 12 12 12 13 12 12 13 12
11 16 21 24 27 29 28 26 26 24 20 17 16 15 14 13 12 11 10 10 9 9 9 10 10 12 13 13 14 14 14 13 12 12 13 13 12 12 12 12 13 13
11 15 21 25 27 29 27 25 25 23 20 18 16 15 14 13 12 11 10 10 9 9 9 10 10 11 12 12 13 14 14 13 12 12 13 13 12 12 12 12 12 13
13 17 24 27 28 29 27 24 23 22 20 18 16 15 14 13 12 11 11 10 9 9 9 9 9 10 10 12 12 12 13 13 13 12 13 13 12 12 12 11 12 13
16 19 25 29 28 28 26 24 23 22 20 18 16 15 14 13 12 11 10 9 8 8 8 8 8 8 9 11 11 11 11 12 12 11 12 13 12 12 12 12 12 12
19 21 25 30 29 27 26 25 25 24 21 20 17 16 14 13 11 10 9 9 8 8 9 8 8 8 8 10 10 11 11 11 11 11 12 12 11 11 11 12 12 13
22 24 28 30 28 27 27 27 27 26 23 21 18 16 14 12 11 9 9 9 9 9 9 9 8 8 8 9 10 11 11 11 11 11 12 12 11 11 11 11 11 12
27 28 30 30 27 27 29 29 29 27 24 21 18 16 14 12 10 9 9 8 8 9 9 9 9 8 7 8 10 11 11 12 12 12 12 12 11 11 10 10 11 12
30 30 31 29 27 28 31 30 29 27 24 22 20 17 15 13 11 10 9 8 8 8 8 9 9 8 7 7 9 10 11 12 13 13 13 13 13 12 12 12 12 12
30 31 30 28 27 29 31 30 29 27 25 23 21 19 16 14 13 11 9 8 8 8 7 8 8 8 8 7 8 10 11 12 13 12 13 14 14 14 14 14 13 13
30 30 30 29 29 31 31 30 28 27 26 24 22 20 18 15 14 12 10 9 8 7 6 7 8 8 8 8 8 10 12 12 13 14 14 14 14 15 16 15 15 15
31 32 32 31 31 33 32 30 29 28 27 26 24 22 19 17 15 13 12 10 8 8 8 7 7 7 7 8 9 10 12 13 15 15 15 15 15 15 16 15 14 16
31 32 34 34 34 35 34 31 30 30 28 26 24 22 21 19 17 15 14 11 10 10 11 8 5 5 6 6 8 10 12 15 16 16 16 15 15 15 16 16 15 16
32 33 35 36 36 36 34 31 31 30 27 26 25 23 22 20 19 17 15 12 12 12 11 8 5 5 5 6 7 9 11 15 17 17 17 16 16 17 18 16 15 15
33 35 36 37 38 37 34 33 32 30 27 27 26 24 23 23 21 18 16 15 15 14 11 8 7 6 6 7 8 9 11 13 15 17 18 17 18 20 20 17 16 16
35 36 36 37 39 37 35 35 33 30 29 28 25 24 25 26 22 19 19 19 17 14 12 11 10 8 8 8 9 10 11 12 14 16 18 17 18 20 21 18 16 16
37 37 37 39 39 38 37 37 35 32 31 29 26 26 27 26 23 22 22 21 17 15 14 13 12 10 10 10 10 10 11 12 14 16 17 18 19 20 20 18 16 16
39 39 40 41 40 39 38 38 36 34 32 30 29 29 28 26 25 25 23 20 18 17 17 15 14 13 11 11 11 10 11 13 14 15 17 19 20 20 20 18 17 17
37 40 43 41 39 37 36 36 35 32 30 29 29 28 26 25 25 23 21 20 21 21 20 18 17 15 13 12 11 11 12 13 14 16 17 18 19 20 21 21 21 20
34 38 40 39 36 35 35 35 35 33 31 29 28 27 25 25 24 21 21 23 24 23 23 22 20 17 15 14 13 12 13 14 15 17 16 16 17 17 17 20 23 23
36 37 37 36 35 36 36 36 35 35 33 32 31 30 29 28 26 24 25 27 27 27 28 27 26 23 19 16 14 13 14 15 16 16 16 16 16 14 15 18 21 23
36 36 35 35 34 34 35 36 36 35 34 33 33 32 32 31 30 28 28 28 29 30 30 29 28 27 22 18 15 14 14 15 16 15 16 16 15 15 17 19 20 22
33 32 33 34 34 33 33 33 34 33 33 33 32 30 30 30 29 29 28 29 30 31 29 26 24 23 20 16 14 13 14 16 17 17 17 16 16 17 18 19 19 21
25 25 27 29 30 32 32 32 33 33 31 29 28 27 28 29 28 28 28 27 28 28 26 22 21 20 17 14 12 13 15 16 18 18 18 18 17 18 19 20 20 21
18 18 21 23 24 27 29 30 31 30 27 25 26 27 26 24 22 21 21 20 19 18 17 17 17 18 16 13 12 13 16 17 18 19 19 18 18 19 22 23 22 21